Location: Lecco
(45.8566°N, 9.3977°E)
Time: 04:58:30
(UTC+02:00)

Transit 4A - Pass Details

Date: 16 August 2020
Orbit: 863 x 982 km, 66.8° (Epoch: 23 September)

Event Time Altitude Azimuth Distance (km) Brightness Sun altitude
Rises 17:20:46 0° 328° (NNW) 3,654 11.2 31.4°
Reaches altitude 10° 17:23:21 10° 332° (NNW) 2,717 10.6 30.9°
Maximum altitude 17:29:40 60° 52° (NE) 1,110 8.5 29.8°
Drops below altitude 10° 17:36:00 10° 132° (SE) 2,729 10.1 28.8°
Sets 17:38:36 0° 136° (SE) 3,671 10.7 28.3°
